AD4CG Weather Reports


time (UTC)temp
C
wind
direction
speed
KPH
gust
KPH
rain 1hr
cm
rain 24hr
cm
rain mn
cm
humidity
%
barometer
mb
20260906113723 23 31 1.6 0.0 0.00 0.00 0.00 95 1013.2
20260906113215 23 30 1.6 0.0 0.00 0.00 0.00 95 1013.2
20260906112707 23 73 0.0 0.0 0.00 0.00 0.00 95 1013.2
20260906091011 22 96 1.6 0.0 0.00 0.00 0.00 96 1012.2
20260906090502 22 120 0.0 0.0 0.00 0.00 0.00 96 1012.2
20260906085954 22 120 1.6 0.0 0.00 0.00 0.00 96 1012.2
20260906085446 22 26 0.0 0.0 0.00 0.00 0.00 96 1011.9
20260906084938 22 26 0.0 0.0 0.00 0.00 0.00 96 1011.9
20260906084430 22 26 0.0 0.0 0.00 0.00 0.00 96 1011.9
20260906083912 22 26 0.0 0.0 0.00 0.00 0.00 95 1011.9
20260906083403 22 26 0.0 0.0 0.00 0.00 0.00 95 1011.9
20260906082854 22 26 0.0 0.0 0.00 0.00 0.00 95 1011.9
20260906082336 22 25 0.0 0.0 0.00 0.00 0.00 95 1011.9
20260906081827 21 24 1.6 0.0 0.00 0.00 0.00 95 1011.9
20260906081319 21 19 0.0 0.0 0.00 0.00 0.00 95 1011.5
20260906080801 21 19 0.0 0.0 0.00 0.00 0.00 95 1011.5
20260906080253 21 19 0.0 0.0 0.00 0.00 0.00 95 1011.5
20260906075743 21 360 0.0 0.0 0.00 0.00 0.00 95 1011.5
20260906075234 21 360 0.0 0.0 0.00 0.00 0.00 95 1011.5
20260906074726 21 360 0.0 0.0 0.00 0.00 0.00 95 1011.5
20260906074208 21 360 0.0 0.0 0.00 0.00 0.00 95 1011.5
20260906073700 21 360 0.0 0.0 0.00 0.00 0.00 94 1011.5
20260906073152 21 360 0.0 0.0 0.00 0.00 0.00 94 1011.5
20260906072633 21 360 0.0 0.0 0.00 0.00 0.00 94 1011.5
20260906072124 22 330 0.0 0.0 0.00 0.00 0.00 95 1011.2
20260906071616 22 330 0.0 0.0 0.00 0.00 0.00 94 1011.2
20260906071057 22 330 0.0 0.0 0.00 0.00 0.00 94 1011.2
20260906070549 22 330 1.6 0.0 0.00 0.00 0.00 94 1011.5
20260906070041 21 330 0.0 0.0 0.00 0.00 0.00 94 1011.5
20260906065533 21 330 0.0 0.0 0.00 0.00 0.00 94 1011.5
20260906065025 21 330 0.0 0.0 0.00 0.00 0.00 94 1011.2
20260906064519 21 330 0.0 0.0 0.00 0.00 0.00 94 1011.2
20260906064011 21 330 0.0 0.0 0.00 0.00 0.00 94 1011.2
20260906063506 21 330 0.0 0.0 0.00 0.00 0.00 93 1011.5
20260906062948 21 330 0.0 0.0 0.00 0.00 0.00 93 1011.5
20260906062439 22 330 0.0 0.0 0.00 0.00 0.00 93 1011.5
20260906061931 22 330 0.0 0.0 0.00 0.00 0.00 93 1011.5
20260906061423 22 330 0.0 0.0 0.00 0.00 0.00 93 1011.5
20260906060904 22 330 0.0 0.0 0.00 0.00 0.00 93 1011.9
20260906060357 22 330 0.0 0.0 0.00 0.00 0.00 93 1011.9
20260906055848 22 330 0.0 0.0 0.00 0.00 0.00 92 1011.9
20260906055340 22 330 0.0 0.0 0.00 0.00 0.00 92 1011.9
20260906054833 22 330 0.0 0.0 0.00 0.00 0.00 92 1011.9
20260906054314 22 330 0.0 0.0 0.00 0.00 0.00 92 1011.9
20260906053805 22 330 1.6 0.0 0.00 0.00 0.00 92 1011.9
20260906053257 22 330 1.6 0.0 0.00 0.00 0.00 92 1011.9
20260906052738 22 330 1.6 0.0 0.00 0.00 0.00 92 1012.2
20260906052229 22 323 0.0 0.0 0.00 0.00 0.00 93 1012.2
20260906051721 22 319 3.2 0.0 0.00 0.00 0.00 93 1012.2
20260906051212 22 329 0.0 0.0 0.00 0.00 0.00 93 1012.2
20260906050654 22 329 1.6 0.0 0.00 0.00 0.00 93 1012.2
20260906050145 22 257 1.6 0.0 0.00 0.00 0.00 94 1012.5
20260906045636 22 236 0.0 0.0 0.00 0.00 0.00 94 1012.5
20260906045126 22 236 0.0 0.0 0.00 0.00 0.00 94 1012.5
20260906044618 22 236 0.0 0.0 0.00 0.00 0.00 94 1012.5
20260906044109 22 236 0.0 0.0 0.00 0.00 0.00 93 1012.5
20260906043601 22 236 0.0 0.0 0.00 0.00 0.00 94 1012.5
20260906043053 22 236 0.0 0.0 0.00 0.00 0.00 93 1012.5
20260906042545 22 236 0.0 0.0 0.00 0.00 0.00 93 1012.5
20260906042031 22 236 0.0 0.0 0.00 0.00 0.00 93 1012.5
20260906041526 22 236 0.0 0.0 0.00 0.00 0.00 93 1012.5
20260906041017 22 324 0.0 0.0 0.00 0.00 0.00 94 1012.5
20260906040509 22 300 0.0 0.0 0.00 0.00 0.00 94 1012.5
20260906040001 22 300 0.0 0.0 0.00 0.03 0.03 94 1012.5
20260906035452 22 290 0.0 0.0 0.00 0.03 0.03 93 1012.5
20260906034943 22 287 0.0 0.0 0.00 0.03 0.03 94 1012.9
20260906034429 22 287 0.0 0.0 0.00 0.03 0.03 94 1012.5
20260906033920 22 260 0.0 0.0 0.00 0.03 0.03 93 1012.5
20260906033411 22 128 1.6 0.0 0.00 0.03 0.03 93 1012.9
20260906032902 22 124 0.0 0.0 0.00 0.03 0.03 93 1012.9
20260906032352 22 124 0.0 0.0 0.00 0.03 0.03 93 1012.9
20260906031843 22 124 0.0 0.0 0.00 0.03 0.03 93 1012.9
20260906031334 22 124 0.0 0.0 0.00 0.03 0.03 93 1012.9
20260906030825 22 123 0.0 0.0 0.00 0.03 0.03 93 1012.9
20260906030316 22 122 0.0 0.0 0.00 0.03 0.03 93 1012.5
20260906025807 22 122 0.0 0.0 0.00 0.03 0.03 93 1012.9
20260906025258 22 122 0.0 0.0 0.00 0.03 0.03 93 1012.9
20260906024750 22 122 1.6 0.0 0.00 0.03 0.03 93 1012.9
20260906024240 22 122 0.0 0.0 0.00 0.03 0.03 93 1012.9
20260906023731 22 122 0.0 0.0 0.00 0.03 0.03 93 1012.9
20260906023221 23 122 0.0 0.0 0.00 0.03 0.03 93 1013.2
20260906022712 23 122 0.0 0.0 0.00 0.03 0.03 92 1012.9
20260906022154 23 122 0.0 0.0 0.00 0.03 0.03 92 1012.9
20260906021645 23 122 0.0 0.0 0.00 0.03 0.03 92 1012.9
20260906021136 23 122 0.0 0.0 0.00 0.03 0.03 92 1012.9
20260906020616 23 122 0.0 0.0 0.00 0.03 0.03 92 1012.9
20260906020056 23 122 0.0 0.0 0.00 0.03 0.03 92 1012.9
20260906015547 23 122 1.6 0.0 0.00 0.03 0.03 93 1012.9
20260906015038 23 184 0.0 0.0 0.00 0.03 0.03 93 1012.9
20260906014529 23 223 4.8 0.0 0.00 0.03 0.03 92 1012.5
20260906014020 23 218 0.0 0.0 0.00 0.03 0.03 92 1012.5
20260906013511 23 252 4.8 0.0 0.00 0.03 0.03 92 1012.5
20260906012952 23 215 0.0 0.0 0.00 0.03 0.03 92 1012.2
20260906012433 23 207 1.6 0.0 0.00 0.03 0.03 92 1012.5
20260906011924 23 230 1.6 0.0 0.00 0.03 0.03 92 1012.2
20260906011415 23 297 0.0 0.0 0.00 0.03 0.03 92 1012.2
20260906010855 23 298 0.0 0.0 0.00 0.03 0.03 91 1012.2
20260906010347 23 298 0.0 0.0 0.00 0.03 0.03 91 1012.2
20260906005838 23 298 0.0 0.0 0.00 0.03 0.03 91 1011.9
20260906005328 23 298 0.0 0.0 0.00 0.03 0.03 91 1011.9
20260906004819 23 298 0.0 0.0 0.00 0.03 0.03 91 1011.9
20260906004311 23 290 0.0 0.0 0.00 0.03 0.03 91 1011.9
20260906003802 23 132 0.0 0.0 0.00 0.03 0.03 91 1012.2
20260906003253 24 132 0.0 0.0 0.00 0.03 0.03 91 1011.9
20260906002745 24 132 0.0 0.0 0.00 0.03 0.03 91 1011.9
20260906002226 24 104 1.6 0.0 0.00 0.03 0.03 90 1011.9
20260906001717 24 177 1.6 0.0 0.00 0.03 0.03 90 1011.9
20260906001208 24 169 0.0 0.0 0.00 0.03 0.03 90 1011.9
20260906000650 24 169 0.0 0.0 0.00 0.03 0.03 90 1011.5
20260906000131 24 169 0.0 0.0 0.00 0.03 0.03 90 1011.5
20260905235612 24 169 0.0 0.0 0.00 0.03 0.03 89 1011.2
20260905235104 24 169 0.0 0.0 0.00 0.03 0.03 89 1011.5
20260905234555 24 169 0.0 0.0 0.00 0.03 0.03 89 1011.2
20260905234046 24 169 0.0 0.0 0.00 0.03 0.03 89 1010.8
20260905233527 24 169 0.0 0.0 0.00 0.03 0.03 89 1010.8
20260905233018 24 168 0.0 0.0 0.00 0.03 0.03 89 1010.8
20260905232508 24 167 0.0 0.0 0.00 0.03 0.03 88 1010.8
20260905231959 24 302 0.0 0.0 0.00 0.03 0.03 88 1010.8
20260905231440 24 302 1.6 0.0 0.00 0.03 0.03 88 1010.8
20260905230931 24 304 1.6 0.0 0.00 0.03 0.03 88 1010.8
20260905230422 24 142 1.6 0.0 0.00 0.03 0.03 88 1010.5
20260905225909 25 80 0.0 0.0 0.00 0.03 0.03 87 1010.5
20260905225400 25 74 0.0 0.0 0.00 0.03 0.03 87 1010.2
20260905224852 25 21 0.0 0.0 0.03 0.03 0.03 86 1010.2
20260905224333 25 20 0.0 0.0 0.03 0.03 0.03 87 1010.2
20260905223824 25 20 0.0 0.0 0.03 0.03 0.03 86 1010.2
20260905223315 25 134 0.0 1.6 0.03 0.03 0.03 86 1010.2
20260905222756 25 106 4.8 0.0 0.03 0.03 0.03 86 1010.2
20260905222247 25 72 0.0 0.0 0.03 0.03 0.03 85 1010.2
20260905221739 25 72 0.0 0.0 0.03 0.03 0.03 83 1010.2
20260905221219 25 72 0.0 0.0 0.03 0.03 0.03 83 1009.8
20260905220710 26 174 0.0 0.0 0.03 0.03 0.03 80 1009.8
20260905220204 26 209 0.0 0.0 0.03 0.03 0.03 78 1010.2
20260905215655 26 134 0.0 0.0 0.03 0.03 0.03 77 1010.5
20260905215146 27 143 0.0 1.6 0.03 0.03 0.03 74 1010.5
20260905214637 27 324 0.0 1.6 0.00 0.00 0.00 72 1010.5
20260905214129 27 273 0.0 0.0 0.00 0.00 0.00 71 1010.5
20260905213620 27 274 0.0 0.0 0.00 0.00 0.00 72 1010.8
20260905213111 27 284 0.0 1.6 0.00 0.00 0.00 73 1010.8
20260905212602 26 181 0.0 1.6 0.00 0.00 0.00 74 1011.2
20260905212053 26 248 0.0 0.0 0.00 0.00 0.00 74 1010.5
20260905211544 26 98 0.0 0.0 0.00 0.00 0.00 75 1010.5
20260905211025 26 132 0.0 1.6 0.00 0.00 0.00 74 1010.5
20260905210506 27 340 0.0 0.0 0.00 0.00 0.00 74 1010.5
20260905205957 27 360 0.0 3.2 0.00 0.00 0.00 70 1010.2
20260905205439 28 38 0.0 1.6 0.00 0.00 0.00 66 1010.2
20260905204451 31 30 4.8 3.2 0.00 0.00 0.00 58 1009.8
20260905203948 34 67 4.8 1.6 0.00 0.00 0.00 1009.8
20260905203441 34 338 0.0 0.0 0.00 0.00 0.00 49 1009.5
20260905202932 34 311 0.0 0.0 0.00 0.00 0.00 50 1009.5
20260905202422 35 317 0.0 0.0 0.00 0.00 0.00 48 1009.5
20260905201913 35 306 0.0 0.0 0.00 0.00 0.00 49 1009.5
20260905201357 35 341 1.6 0.0 0.00 0.00 0.00 48 1009.5
20260905200848 35 335 1.6 0.0 0.00 0.00 0.00 50 1009.5
20260905200328 35 185 3.2 1.6 0.00 0.00 0.00 49 1009.1
20260905195819 35 219 0.0 1.6 0.00 0.00 0.00 50 1009.5
20260905195309 35 215 0.0 0.0 0.00 0.00 0.00 49 1009.5
20260905194800 35 210 0.0 0.0 0.00 0.00 0.00 48 1009.8
20260905194250 36 313 1.6 0.0 0.00 0.00 0.00 46 1009.8
20260905193741 35 267 0.0 0.0 0.00 0.00 0.00 47 1009.8
20260905193232 36 331 0.0 0.0 0.00 0.00 0.00 46 1009.8
20260905192722 36 334 1.6 0.0 0.00 0.00 0.00 46 1009.8
20260905192216 36 277 1.6 1.6 0.00 0.00 0.00 45 1009.8
20260905191706 36 243 1.6 1.6 0.00 0.00 0.00 45 1009.8
20260905191147 36 260 0.0 1.6 0.00 0.00 0.00 46 1009.8
20260905190642 36 229 0.0 1.6 0.00 0.00 0.00 45 1009.8
20260905190123 36 225 0.0 0.0 0.00 0.00 0.00 46 1009.8
20260905185613 36 350 0.0 1.6 0.00 0.00 0.00 46 1009.8
20260905185104 36 321 0.0 1.6 0.00 0.00 0.00 47 1009.8
20260905184555 36 275 0.0 0.0 0.00 0.00 0.00 47 1010.2
20260905184045 36 44 0.0 0.0 0.00 0.00 0.00 47 1010.2
20260905183536 35 261 0.0 1.6 0.00 0.00 0.00 47 1010.2
20260905183026 35 281 0.0 1.6 0.00 0.00 0.00 49 1010.5
20260905182224 35 304 0.0 0.0 0.00 0.00 0.00 48 1010.5
20260905181715 35 9 0.0 1.6 0.00 0.00 0.00 47 1010.8
20260905181206 35 350 0.0 1.6 0.00 0.00 0.00 47 1010.8
20260905180647 35 340 0.0 0.0 0.00 0.00 0.00 48 1010.8
20260905180138 35 177 3.2 1.6 0.00 0.00 0.00 48 1010.8
20260905175629 35 265 0.0 1.6 0.00 0.00 0.00 48 1011.2
20260905175109 35 325 0.0 0.0 0.00 0.00 0.00 50 1011.2
20260905174600 35 327 0.0 1.6 0.00 0.00 0.00 49 1011.5
20260905174050 35 331 0.0 1.6 0.00 0.00 0.00 48 1011.5
20260905173541 35 355 0.0 1.6 0.00 0.00 0.00 50 1011.9
20260905173032 35 311 6.4 0.0 0.00 0.00 0.00 50 1011.9
20260905172512 34 288 0.0 1.6 0.00 0.00 0.00 52 1011.9
20260905172003 35 319 8.0 1.6 0.00 0.00 0.00 53 1011.9
20260905171453 34 304 0.0 1.6 0.00 0.00 0.00 52 1011.9
20260905170944 35 347 0.0 1.6 0.00 0.00 0.00 51 1011.9
20260905170435 35 307 6.4 1.6 0.00 0.00 0.00 51 1011.9
20260905165925 34 232 0.0 0.0 0.00 0.00 0.00 53 1012.2
20260905165415 33 11 0.0 1.6 0.00 0.00 0.00 55 1012.2
20260905164906 33 273 0.0 1.6 0.00 0.00 0.00 54 1012.2
20260905164357 33 322 3.2 0.0 0.00 0.00 0.00 55 1012.2
20260905163843 33 294 0.0 0.0 0.00 0.00 0.00 56 1012.5
20260905163332 33 295 0.0 1.6 0.00 0.00 0.00 56 1012.5
20260905162822 34 322 4.8 0.0 0.00 0.00 0.00 57 1012.5
20260905162313 33 334 1.6 1.6 0.00 0.00 0.00 57 1012.5
20260905161807 33 340 0.0 1.6 0.00 0.00 0.00 57 1012.9
20260905161258 32 339 0.0 1.6 0.00 0.00 0.00 60 1012.9
20260905160748 33 279 0.0 1.6 0.00 0.00 0.00 59 1012.9
20260905160239 32 340 1.6 0.0 0.00 0.00 0.00 60 1012.9
20260905155730 32 302 0.0 0.0 0.00 0.00 0.00 62 1012.9
20260905155221 32 286 0.0 0.0 0.00 0.00 0.00 62 1012.9
20260905154712 32 304 0.0 0.0 0.00 0.00 0.00 64 1013.2
20260905154202 32 289 0.0 1.6 0.00 0.00 0.00 64 1013.2
20260905153653 32 36 0.0 1.6 0.00 0.00 0.00 64 1013.2
20260905153142 31 355 0.0 0.0 0.00 0.00 0.00 65 1013.2
20260905152632 31 360 0.0 0.0 0.00 0.00 0.00 65 1013.2
20260905152113 31 286 3.2 1.6 0.00 0.00 0.00 66 1013.2
20260905151603 31 319 0.0 1.6 0.00 0.00 0.00 67 1013.2
20260905151053 31 334 0.0 1.6 0.00 0.00 0.00 66 1013.2
20260905150544 31 355 0.0 1.6 0.00 0.00 0.00 67 1013.2
20260905150025 31 25 0.0 0.0 0.00 0.00 0.00 69 1013.2
20260905145516 31 309 0.0 1.6 0.00 0.00 0.00 68 1013.2
20260905145007 31 312 11.3 1.6 0.00 0.00 0.00 68 1013.2
20260905144458 31 355 3.2 0.0 0.00 0.00 0.00 69 1013.2
20260905143950 30 329 1.6 0.0 0.00 0.00 0.00 71 1013.2
20260905143442 30 290 1.6 0.0 0.00 0.00 0.00 72 1013.2
20260905142923 30 360 0.0 0.0 0.00 0.00 0.00 72 1013.2
20260905142414 30 249 0.0 0.0 0.00 0.00 0.00 73 1013.2
20260905141905 30 183 0.0 0.0 0.00 0.00 0.00 75 1013.2
20260905141357 29 313 0.0 0.0 0.00 0.00 0.00 75 1013.2
20260905140849 29 318 0.0 0.0 0.00 0.00 0.00 76 1013.2
20260905140048 29 218 0.0 0.0 0.00 0.00 0.00 77 1013.2
20260905135539 28 348 3.2 0.0 0.00 0.00 0.00 78 1013.2
20260905135031 28 232 0.0 1.6 0.00 0.00 0.00 78 1013.2
20260905134522 28 267 0.0 1.6 0.00 0.00 0.00 79 1013.2
20260905134013 28 22 0.0 1.6 0.00 0.00 0.00 79 1013.2
20260905133505 28 327 3.2 1.6 0.00 0.00 0.00 80 1013.2
20260905132956 28 143 0.0 0.0 0.00 0.00 0.00 81 1013.2
20260905132448 27 229 0.0 1.6 0.00 0.00 0.00 81 1013.5
20260905131939 27 290 0.0 1.6 0.00 0.00 0.00 81 1013.5
20260905131421 27 217 0.0 0.0 0.00 0.00 0.00 82 1013.5
20260905130907 27 235 0.0 0.0 0.00 0.00 0.00 83 1013.5
20260905130359 27 360 0.0 0.0 0.00 0.00 0.00 83 1013.5
20260905125849 26 204 0.0 1.6 0.00 0.00 0.00 84 1013.5
20260905125340 26 234 9.7 1.6 0.00 0.00 0.00 84 1013.5
20260905124835 26 215 0.0 1.6 0.00 0.00 0.00 85 1013.5
20260905124326 26 269 1.6 0.0 0.00 0.00 0.00 85 1013.9
20260905123817 26 128 0.0 0.0 0.00 0.00 0.00 86 1013.5
20260905123308 26 203 0.0 0.0 0.00 0.00 0.00 86 1013.5
20260905122800 26 228 3.2 0.0 0.00 0.00 0.00 87 1013.5
20260905122252 26 193 1.6 0.0 0.00 0.00 0.00 88 1013.5
20260905121744 25 266 0.0 0.0 0.00 0.00 0.00 89 1013.5
20260905121235 25 261 3.2 0.0 0.00 0.00 0.00 89 1013.5
20260905120726 25 286 0.0 0.0 0.00 0.00 0.00 89 1013.5
20260905120218 25 286 0.0 0.0 0.00 0.00 0.00 90 1013.5
20260905115709 24 262 0.0 0.0 0.00 0.00 0.00 90 1013.5
20260905115150 24 215 0.0 0.0 0.00 0.00 0.00 91 1013.5
20260905114642 23 215 0.0 0.0 0.00 0.00 0.00 91 1013.5
20260905114134 23 215 0.0 0.0 0.00 0.00 0.00 91 1013.2